Location: Unspecified
(41.1637°N, 24.2901°E)
Time: 15:21:58
(UTC+01:00)

ISS - Pass Details

Date: 17 January 2021
Orbit: 418 x 421 km, 51.6° (Epoch: 27 January)

Event Time Altitude Azimuth Distance (km) Brightness Sun altitude
Rises 17:48:35 0° 202° (SSW) 2,354 0.6 -16.2°
Reaches altitude 10° 17:50:57 10° 187° (S) 1,495 -0.7 -16.6°
Enters shadow 17:53:22 22° 141° (SE) 960 -2.2 -17.1°
